Weather History for KLVK - May, 2013

Change the Weather History Date:

Sunday, May 12, 2013

  Actual Average Record
Temperature  
Mean Temperature 71 °F 62 °F  
Max Temperature 88 °F 75 °F 100 °F (1976)
Min Temperature 54 °F 49 °F 38 °F (1943)
Degree Days  
Heating Degree Days 0 4  
Month to date heating degree days 10 60  
Since 1 July heating degree days 2337 2682  
Cooling Degree Days 6 1  
Month to date cooling degree days 47 12  
Year to date cooling degree days 80 21  
Growing Degree Days 21 (Base 50)    
Moisture  
Dew Point 49 °F    
Average Humidity 50    
Maximum Humidity 77    
Minimum Humidity 22    
Precipitation  
Precipitation 0.00 in 0.03 in 0.32 in (1998)
Month to date precipitation 0.09 0.35  
Year to date precipitation 2.05 9.59  
Since 1 July precipitation 10.34 15.40  
Sea Level Pressure  
Sea Level Pressure 30.08 in    
Wind  
Wind Speed 7 mph (WNW)    
Max Wind Speed 17 mph    
Max Gust Speed 21 mph    
Visibility 10 miles    
Events      
T = Trace of Precipitation, MM = Missing Value Source: NWS Daily Summary

Daily Weather History Graph

Daily Weather History Graph

Search for Another Location

Airport or City:

Trip Planner

Search our weather history database for the weather conditions in past years. The results will help you decide how hot, cold, wet, or windy it might be!

Date:

Astronomy

May. 12, 2013 Rise Set
Actual Time 5:59 AM PDT 8:07 PM PDT
Civil Twilight 5:30 AM PDT 8:37 PM PDT
Nautical Twilight 4:55 AM PDT 9:12 PM PDT
Astronomical Twilight 4:16 AM PDT 9:51 PM PDT
Moon 8:00 AM PDT (5/12) 10:38 PM PDT (5/12)
Length of Visible Light 15h 06m
Length of Day
14h 07m
Waxing Crescent, 7% of the Moon is Illuminated
May 12
Waxing Crescent
May 17
First Quarter
May 24
Full
May 31
Last Quarter
Jun 8
New

Hourly Weather History & Observations

Time (PDT) Temp. Heat Index Dew Point Humidity Pressure Visibility Wind Dir Wind Speed Gust Speed Precip Events Conditions
12:53 AM 61.0 °F - 46.0 °F 58% 30.11 in 10.0 mi WNW 6.9 mph - N/A   Clear
1:53 AM 60.1 °F - 46.9 °F 62% 30.10 in 10.0 mi Calm Calm - N/A   Clear
2:53 AM 59.0 °F - 48.0 °F 67% 30.09 in 10.0 mi Calm Calm - N/A   Clear
3:53 AM 59.0 °F - 48.0 °F 67% 30.09 in 10.0 mi Calm Calm - N/A   Clear
4:53 AM 55.0 °F - 46.9 °F 74% 30.09 in 10.0 mi Calm Calm - N/A   Clear
5:53 AM 55.9 °F - 48.0 °F 75% 30.10 in 10.0 mi Calm Calm - N/A   Clear
6:53 AM 57.9 °F - 48.9 °F 72% 30.12 in 10.0 mi Calm Calm - N/A   Clear
7:53 AM 62.1 °F - 50.0 °F 65% 30.12 in 10.0 mi West 5.8 mph - N/A   Clear
8:53 AM 66.9 °F - 50.0 °F 54% 30.13 in 10.0 mi SW 3.5 mph - N/A   Clear
9:53 AM 75.0 °F - 51.1 °F 43% 30.12 in 10.0 mi West 8.1 mph - N/A   Clear
10:53 AM 80.1 °F - 48.9 °F 34% 30.11 in 10.0 mi WNW 11.5 mph - N/A   Clear
11:53 AM 82.9 °F - 50.0 °F 32% 30.11 in 10.0 mi WNW 10.4 mph - N/A   Clear
12:53 PM 84.9 °F - 48.9 °F 29% 30.10 in 10.0 mi West 11.5 mph - N/A   Clear
1:53 PM 87.1 °F - 45.0 °F 23% 30.09 in 10.0 mi WNW 15.0 mph - N/A   Clear
2:53 PM 86.0 °F - 48.9 °F 28% 30.07 in 10.0 mi West 16.1 mph - N/A   Clear
3:53 PM 84.0 °F - 51.1 °F 32% 30.05 in 10.0 mi West 16.1 mph - N/A   Clear
4:53 PM 82.9 °F - 52.0 °F 34% 30.04 in 10.0 mi West 15.0 mph - N/A   Clear
5:53 PM 82.0 °F 81.2 °F 53.1 °F 37% 30.03 in 10.0 mi West 12.7 mph - N/A   Clear
6:53 PM 78.1 °F - 50.0 °F 37% 30.02 in 10.0 mi West 10.4 mph - N/A   Clear
7:53 PM 72.0 °F - 48.9 °F 44% 30.01 in 10.0 mi West 8.1 mph - N/A   Clear
8:53 PM 66.9 °F - 50.0 °F 54% 30.03 in 10.0 mi WNW 5.8 mph - N/A   Clear
9:53 PM 64.0 °F - 50.0 °F 60% 30.04 in 10.0 mi NW 6.9 mph - N/A   Clear
10:53 PM 61.0 °F - 51.1 °F 70% 30.05 in 10.0 mi WNW 8.1 mph - N/A   Clear
11:53 PM 61.0 °F - 48.0 °F 62% 30.04 in 10.0 mi WNW 6.9 mph - N/A   Clear